Погода в Дерябкине

Россия / Воронежская область     51°31′45″N   40°56′27″E
темп.,
°C
ветер,
м/с
пор.,
м/с
влажн.,
%
обл.,
%
осадки,
мм/ч
давл.,
гПа
погр.,
м
5 марта, пт
пт500:00+1з51196100 0.0 1004539
03:00+1зюз61198100 0.3 1003454
06:00+1зсз61199100 0.3 1004471
09:00−1зсз5109397 0.4 1007480
12:00−1ссз459186 0.0 1009552
15:00−1ссз348793 0.1 1011577
18:00−2з238894 0.0 101339
21:00−4зюз229089 0.0 101521
6 марта, сб
сб600:00−6сз229498 0.0 101521
03:00−7с229399 0.0 101621
06:00−7всв129489 0.0 101621
09:00−5в119394 0.0 101669
12:00−3с1189100 0.0 1016284
15:00−3ссз2288100 0.0 1014390
18:00−5с1196100 0.1 101523
21:00−5сз5995100 1.7 1016364
7 марта, вс
вс700:00−8ссз5119399 0.1 1016302
03:00−11зсз359461 0.1 101890
06:00−10зюз46920 0.0 1018132
09:00−7зюз511860 0.0 1017535
12:00−4юз7127471 0.0 10141090
15:00−2юз7147385 0.0 10101200
18:00−2юз81770100 0.0 10061217
21:00−2зюз111895100 0.8 10051143
8 марта, пн
пн800:00−6з3582100 1.3 1006117
03:00−6юз4986100 1.3 1006210
06:00−5юз61194100 0.1 1003311
09:00−2з91495100 0.8 1003993
12:00−3з8137983 0.5 10041352
15:00−4з6117474 0.5 10061024
18:00−8зсз6137625 0.0 1009393
21:00−10з5118213 0.0 1012235
9 марта, вт
вт900:00−11з47840 0.0 1013103
03:00−12зюз34860 0.0 101339
06:00−12зюз23890 0.0 101421
09:00−9зсз129049 0.0 101488
12:00−6сз238599 0.0 1013367
15:00−6ссз3490100 0.1 1014481
18:00−8ссз3694100 0.1 1015185
21:00−11ссз6119298 0.1 1017401